Weather Roundup
Issued by NWS

Home | Current Version | Previous Version | Graphics & Text | Print | Product List | Glossary Off
Versions: 1 2 3 4 5 6 7 8 9 10 11 12 13 14 15 16 17 18 19 20 21 22 23 24 25 26 27 28 29 30 31 32 33 34 35 36 37 38 39 40 41 42 43 44 45 46 47 48 49 50

000
NZUS93 KARX 221410
HRRWXR

CURRENT HOURLY OBSERVATIONS ACROSS
MUCH OF THE UPPER MISSISSIPPI VALLEY
NATIONAL WEATHER SERVICE LA CROSSE WI
800 AM CST SUN JAN 22 2017


...SOUTHEAST MINNESOTA...


CITY           SKY/WX    TMP DP  RH WIND       PRES   REMARKS
ROCHESTER      FOG       32  32 100 W6        29.63R VSB 1/4 WCI  26
ROCHESTER/MAYO CLOUDY    34  35 100 W6        29.64R VSB 1/4 WCI  29
WINONA         FOG       34  34 100 CALM      29.65R VSB 1/2
AUSTIN         FOG       34  32  93 NW3       29.64R VSB 1/4
ALBERT LEA     CLOUDY    34  34 100 NW3       29.65R FOG
DODGE CENTER   FOG       34  34 100 CALM      29.64R VSB 1/4
PRESTON        FOG       32  32 100 NW6       29.63R VSB 1/4 WCI  26
OWATONNA       FOG       34  32  93 W3        29.66R VSB 1/4
FARIBAULT      NOT AVBL
$$

...ELSEWHERE IN MINNESOTA...


CITY           SKY/WX    TMP DP  RH WIND       PRES   REMARKS
MINNEAPOLIS    CLOUDY    35  33  92 N6        29.66R WCI  30
INTNL FALLS    FOG       34  32  92 NW3       29.66R VSB 1/2
DULUTH         FOG       34  34 100 NW3       29.62R VSB 1/2
RED WING       FOG       36  34  93 W3        29.65R VSB 1/4
REDWOOD FALLS  CLOUDY    34  33  96 NW6       29.69R FOG     WCI  29
MANKATO        FOG       34  33  96 NW5       29.68R VSB 3/4 WCI  30
WORTHINGTON    FOG       33  32  96 NW9       29.70R VSB 3/4 WCI  25
FAIRMONT       FOG       34  32  92 NW8       29.69R VSB 1/4 WCI  27
$$

...SOUTHWEST WISCONSIN...


CITY           SKY/WX    TMP DP  RH WIND       PRES   REMARKS
LA CROSSE      FOG       37  34  89 CALM      29.63R VSB 1/4
PRAIRIE DU CHI CLOUDY    34  33  96 CALM      29.64R FOG
BOSCOBEL       CLOUDY    37  35  92 S5        29.64R FOG     WCI  33
LONE ROCK      CLOUDY    36  35  96 CALM      29.64R FOG
PLATTEVILLE    CLOUDY    32  32 100 N3        29.62S
FORT MC COY    FOG       34  34 100 CALM      29.63R VSB<1/4
CAMP DOUGLAS   FOG       36  36 100 W5        29.60R VSB 1/4 WCI  32
MAUSTON-NEW LI FOG       36  36 100 CALM      29.60R VSB 1/4
VIROQUA        CLOUDY    34  34 100 W3        29.61R
WIS DELLS      FOG       36  36 100 CALM      29.61R VSB 1/4
$$

...ELSEWHERE IN WISCONSIN...


CITY           SKY/WX    TMP DP  RH WIND       PRES   REMARKS
MILWAUKEE      CLOUDY    41  39  93 CALM      29.62R FOG
MADISON        CLOUDY    37  36  96 CALM      29.63R FOG
GREEN BAY      FOG       38  38 100 CALM      29.61R VSB<1/4
EAU CLAIRE     FOG       33  33 100 W5        29.62R VSB 1/2 WCI  29
BLACK RVR FLS  FOG       35  35 100 W3        29.61R VSB 1/4
MEDFORD        FOG       33  33  99 CALM      29.58R VSB<1/4
WAUSAU         CLOUDY    34  34 100 N3        29.58R FOG
WIS RAPIDS     FOG       36  36 100 NW3       29.61R VSB 1/4
MARSHFIELD     FOG       34  34 100 W6        29.59R VSB 1/4 WCI  29
RICE LAKE      FOG       34  34 100 W3        29.63R VSB 3/4
$$

...NORTHEAST IOWA...


CITY           SKY/WX    TMP DP  RH WIND       PRES   REMARKS
WATERLOO       CLOUDY    32  30  92 NW5       29.64R WCI  27
DUBUQUE        CLOUDY    31  31 100 CALM      29.62R
DECORAH        CLOUDY    32  32 100 CALM      29.62R FOG
MASON CITY     FOG       33  32  96 NW7       29.66R VSB 3/4 WCI  27
CHARLES CITY   CLOUDY    32  32 100 NW5       29.65R FOG     WCI  27
OELWEIN        FOG       32  32 100 NW5       29.64R VSB 3/4 WCI  27
$$

...ELSEWHERE IN IOWA...


CITY           SKY/WX    TMP DP  RH WIND       PRES   REMARKS
DES MOINES     CLOUDY    34  31  88 NW5       29.67R WCI  30
IOWA CITY      FOG       33  32  96 CALM      29.65R VSB 1/2
FORT DODGE     CLOUDY    34  30  86 NW5       29.68R WCI  30
MARSHALLTOWN   CLOUDY    32  31  96 NW7       29.64S WCI  26
CEDAR RAPIDS   FOG       33  33 100 NW9       29.62R VSB 1/2 WCI  25
$$

...NORTHERN ILLINOIS...


CITY           SKY/WX    TMP DP  RH WIND       PRES   REMARKS
CHICAGO-OHARE  CLOUDY    41  38  89 NE5       29.62R
CHICAGO-MIDWAY FOG       42  40  92 NE5       29.62R VSB 1/4
MOLINE         MOCLDY    32  30  92 CALM      29.63R FOG
ROCKFORD       FOG       35  33  92 N5        29.65R VSB 1/4 WCI  31
PEORIA         FOG       38  38 100 NE3       29.62R VSB 1/8
$$

NOTE: "FAIR" INDICATES FEW OR NO CLOUDS BELOW 12,000 FEET WITH NO
SIGNIFICANT WEATHER AND/OR OBSTRUCTIONS TO VISIBILITY. WIND
SPEEDS ARE IN MILES-PER-HOUR.




USA.gov is the U.S. government's official web portal to all federal, state and local government web resources and services.